METEOR 2-11 DEB, 40710

Orbit data source: Space-Track

METEOR 2-11 DEB, 40710 is space debris in LEO originally from a launch on Thu, 05 Jul 1984 UTC launched from the Plesetsk Missile And Space Complex (PKMTR). Debris objects in space refer to the collection of defunct objects orbiting the Earth. Examples of debris include non-operational satellites, rocket bodies, and fragments generated from explosions, collisions, or faulty payload assembly.

Loading next visibility...
Identifier
40710, 1984-072M
Orbit
LEO
Country
Flag of CISCIS
Related business
Manufacturer
Unknown
Mission
Spacecraft
Bus & Motor
Unknown
Mass
Unknown
Launch date (UTC)
1984-07-05 (41 years ago)
Launch vehicle
Unknown
Launch site
Plesetsk Missile And Space Complex (PKMTR)
Object type
Payload
Rocket body
Debris
Shape & HBR
Unknown shape, 0.1 m
Radar Cross Section
Small (<0.1 m²)

Expand to show TLE details & history
Last TLE update: 2 days ago

TLE from 2 days ago
0 METEOR 2-11 DEB
1 40710U 84072M   25300.45284988  .00002942  00000-0  21244-2 0  9993
2 40710  82.5253 199.3965 0039066 342.1914  17.7880 13.95992628 78649
Epoch: 2025-10-27T10:52Z
TLE epoch observation values (Epoch: 2025-10-27T10:52:06.229Z)
Latitude
-0.0001°
Longitude
0.31605°
Altitude
883.526 km
Speed
7.424 km/s
True Right ascension
13h 17m 35s
True Declination
0° 00' 00"
Sunlit
Object was in daylight at epoch
Visualization orbit readout
Latitude
Unknown
Longitude
Unknown
Altitude
Unknown
Speed
Unknown
Apparent Right ascension
Unknown
Apparent Declination
Unknown
Sunlit
N/A
Visualization observer readout
Local Sidereal Time
05:18:52
Azimuth
Unknown
Elevation
Unknown
Doppler factor
Unknown
Orbital elements
Apogee altitude
933.293 km
Perigee altitude
876.39 km
Semi-major axis
7,282.978 km
Eccentricity
0.00391
Inclination
82.5253°
RAAN
199.3965°
Arg. of periapsis
342.1914°
True anomaly
17.9254°
Mean anomaly
17.788°
Eccentric anomaly
17.85663°
Mean motion
3.49204 °/min
Orbital period
103.09 mins
BSTAR
0.0021244
Loading maneuver chart data...
Computing Atmospheric mass density...
Loading historical data...
Loading historical data...
Loading historical data...
Loading historical data...
Loading historical data...
Loading historical data...
Loading historical data...

Documentation

Showing up to 5 results
|